Date,TemperatureHighF,TemperatureAvgF,TemperatureLowF,DewpointHighF,DewpointAvgF,DewpointLowF,HumidityHigh,HumidityAvg,HumidityLow,PressureMaxIn,PressureMinIn,WindSpeedMaxMPH,WindSpeedAvgMPH,GustSpeedMaxMPH,PrecipitationSumIn
2013-2-1,36.5,11.8,-7.1,16.0,1.6,-11.0,93,68,32,30.32,30.15,13,1,0,0.05
2013-2-2,37.8,12.8,-5.2,14.0,3.0,-9.0,89,69,30,30.39,30.32,4,0,0,0.03
2013-2-3,32.1,12.4,-4.9,17.0,4.1,-8.0,90,72,42,30.34,30.10,1,0,0,0.00
2013-2-4,36.2,14.7,-0.3,14.0,5.1,-5.0,92,69,36,30.16,30.07,9,0,0,0.00
2013-2-5,38.2,14.2,-2.2,17.0,5.2,-5.0,93,71,39,30.22,30.08,9,0,0,0.00
2013-2-6,36.7,18.6,-1.2,21.0,10.6,-4.0,94,74,41,30.10,29.98,5,0,0,0.00
2013-2-7,34.3,18.7,6.4,19.0,8.8,2.0,93,67,42,30.19,30.10,9,1,0,0.04
2013-2-8,33.3,25.4,7.8,22.0,12.8,3.0,84,60,46,30.10,29.81,14,2,0,0.00
2013-2-9,28.5,20.6,11.9,17.0,13.1,5.0,89,74,46,29.80,29.65,6,1,0,0.01
2013-2-10,23.6,8.5,-4.4,11.0,2.2,-8.0,89,77,46,29.91,29.77,8,0,0,0.04
2013-2-11,23.6,8.2,-5.2,11.0,2.6,-9.0,89,79,54,30.02,29.87,4,0,0,0.00
2013-2-12,26.2,5.8,-11.3,5.0,-4.2,-16.0,85,67,35,30.14,30.02,3,0,0,0.02
2013-2-13,32.9,15.3,-4.6,16.0,5.7,-8.0,88,69,44,30.16,30.07,9,1,0,0.05
2013-2-14,31.1,16.7,2.2,13.0,4.1,-99.9,84,63,39,30.23,30.11,7,-15,0,0.01
2013-2-15,29.9,10.3,-6.6,9.0,-0.4,-10.0,87,66,35,30.36,30.22,10,1,0,0.01
2013-2-16,40.9,15.3,-5.2,12.0,0.9,-9.0,89,60,19,30.35,30.18,4,0,0,0.00
2013-2-17,40.2,17.5,-4.2,17.0,1.4,-9.0,88,55,17,30.18,29.83,5,0,0,0.00
2013-2-18,32.3,14.9,-2.7,17.0,1.9,-8.0,92,62,23,30.11,29.86,6,0,0,0.06
2013-2-19,33.6,8.0,-15.2,5.0,-5.5,-20.0,88,60,26,30.11,29.83,4,0,0,0.00
2013-2-20,25.5,12.8,1.5,20.0,8.4,-3.0,90,82,75,29.84,29.65,1,0,0,0.00
2013-2-21,28.5,15.7,0.3,16.0,8.5,-3.0,93,75,46,29.91,29.69,5,0,0,0.10
2013-2-22,24.9,7.6,-8.5,14.0,-0.0,-13.0,90,72,45,30.03,29.87,5,0,0,0.02
2013-2-23,25.2,5.8,-12.6,13.0,-0.2,-17.0,93,77,48,30.02,29.76,5,0,0,0.01
2013-2-24,21.6,8.7,-11.5,11.0,1.9,-16.0,90,75,46,29.99,29.75,12,0,0,0.09
2013-2-25,32.8,7.5,-13.1,9.0,-3.0,-17.0,93,67,30,30.09,29.95,6,0,0,0.09
2013-2-26,21.8,5.8,-9.3,8.0,-2.6,-13.0,89,71,37,30.10,29.85,10,1,0,0.01
2013-2-27,27.1,6.8,-9.6,6.0,-4.4,-14.0,86,64,34,30.24,30.11,6,1,0,0.01
2013-2-28,32.9,11.7,-10.6,8.0,-2.2,-15.0,84,58,31,30.30,30.23,10,1,0,0.01